Theta_e
346 348 348 349 350 350 350 349 349 349 350 351 352 353 352 353 353 354 357 356 358 356 354 353 353 355 356 356 355 354 353 352 351 351 350 349 348 348 347 346 346 345 345
349 349 350 349 350 350 349 348 347 347 347 349 350 352 352 353 355 354 353 355 354 356 356 355 355 354 353 354 354 353 352 352 351 351 350 350 349 348 348 348 348 347 346
352 354 350 350 350 350 349 348 347 346 346 349 351 350 351 353 353 354 354 351 353 352 351 350 351 352 354 353 352 351 350 350 349 349 349 349 349 348 346 346 346 346 346
352 356 350 350 350 350 349 347 345 343 343 346 347 349 350 352 349 348 349 347 348 346 347 346 346 346 346 347 347 345 343 342 342 342 343 344 344 344 345 345 345 344 343
350 354 350 350 351 347 347 346 345 344 341 343 345 343 344 345 347 345 341 341 341 341 340 341 340 339 340 341 340 338 336 335 335 336 336 337 337 338 338 339 339 339 339
348 352 349 350 349 346 346 346 347 344 342 342 341 337 336 337 341 340 337 337 337 338 338 339 336 334 334 334 333 332 331 329 329 330 330 331 332 333 333 333 333 334 333
347 352 348 349 348 345 347 348 345 341 337 342 337 331 328 332 334 337 338 338 337 336 336 335 333 332 329 328 328 328 328 326 324 325 325 326 327 328 327 327 327 327 326
347 349 350 346 346 343 346 345 344 337 339 340 334 332 324 321 325 329 334 332 331 329 327 328 328 328 327 325 323 324 324 324 323 323 323 323 323 324 323 323 323 323 322
347 347 348 345 344 345 341 342 340 340 335 336 340 334 328 325 322 325 329 328 327 324 323 323 323 323 323 322 321 319 319 320 322 321 320 320 321 321 320 320 320 320 320
342 342 344 344 343 341 345 340 338 338 339 333 333 336 334 334 323 316 322 325 325 322 322 320 321 321 321 321 320 317 315 316 316 316 318 318 318 319 319 318 318 319 319
340 340 341 341 340 341 343 342 339 336 334 335 332 331 330 329 331 323 316 318 321 322 320 318 318 319 320 321 319 314 314 315 314 314 316 318 318 318 316 317 316 315 314
334 335 334 335 337 336 336 337 335 336 334 333 336 332 328 325 322 321 318 318 318 318 316 316 316 317 319 317 315 315 315 314 313 311 311 312 313 313 312 311 311 312 313
322 321 323 323 325 327 331 334 333 332 331 327 327 329 332 326 327 324 322 317 315 315 313 314 314 316 316 316 312 311 311 310 309 310 311 311 309 309 309 309 309 310 310
307 307 306 307 310 312 315 321 326 325 326 324 323 326 328 328 324 324 322 317 312 310 311 311 312 312 314 314 308 305 313 307 306 306 310 308 307 307 307 307 307 307 308
306 305 305 304 305 304 306 309 314 317 319 318 318 319 319 320 319 320 322 320 314 309 308 309 307 312 312 311 308 313 313 303 303 304 307 308 307 307 307 306 307 306 306
307 306 304 304 304 303 304 305 306 310 311 311 310 313 314 313 316 319 322 321 318 315 310 312 311 310 312 311 308 312 311 304 303 302 304 307 308 307 306 306 306 305 306
307 307 305 304 303 303 303 304 304 306 306 307 308 308 311 316 313 315 316 316 315 315 310 310 310 310 312 311 310 312 310 311 309 304 303 304 305 305 305 305 305 305 305
308 306 305 304 303 303 303 303 303 304 303 303 304 306 305 307 312 313 310 315 314 315 309 306 309 308 310 313 313 312 311 310 310 307 303 304 305 306 306 306 306 306 306
306 306 306 304 303 303 303 303 304 303 303 303 304 304 306 309 311 309 310 310 310 310 311 307 306 309 309 311 311 313 313 313 311 308 306 307 307 306 307 307 306 306 306
305 305 305 304 303 303 302 303 303 304 304 304 306 307 307 308 309 310 310 311 311 309 309 307 306 307 309 312 311 309 308 311 309 309 310 308 306 307 307 306 306 305 305
305 305 304 304 304 304 304 303 303 303 303 305 307 307 308 309 310 311 309 311 311 309 307 306 306 307 307 308 308 310 308 308 309 309 306 306 306 307 307 308 308 308 306
307 306 305 304 304 303 303 305 306 305 305 306 307 307 309 309 309 308 308 310 312 310 309 307 307 308 310 309 310 309 306 305 302 308 305 304 306 305 306 306 306 303 303
308 307 305 305 305 306 302 303 305 306 306 306 306 306 304 305 308 308 308 308 307 307 307 311 309 310 310 312 312 309 308 306 303 305 305 302 305 303 306 305 305 303 302
307 307 306 307 306 305 302 301 301 306 306 305 306 307 307 308 309 310 310 309 310 312 312 310 312 313 313 314 312 310 308 306 305 306 308 299 303 302 304 305 303 303 301
303 303 304 306 307 306 300 300 302 305 305 307 307 309 309 310 305 301 308 309 310 311 305 304 302 301 300 300 301 304 301 299 300 301 305 301 301 301 302 302 303 303 301
304 304 304 305 304 305 299 299 301 304 303 304 308 310 306 308 301 300 308 310 309 311 312 310 306 303 301 305 300 303 301 299 299 299 304 300 300 300 297 302 302 302 302
Wind_Speed
8 7 6 7 7 6 8 6 6 6 6 5 4 2 2 2 3 2 7 8 8 6 5 3 2 8 11 12 11 11 11 11 10 10 9 9 8 7 7 6 6 5 3
7 8 7 8 7 7 7 7 7 6 5 4 4 3 3 3 2 3 7 8 10 12 13 13 10 7 4 8 9 9 8 9 9 9 8 8 8 7 7 7 7 6 5
9 9 8 8 8 7 8 5 6 5 4 4 3 5 4 3 4 8 5 6 10 15 16 17 18 17 16 14 14 13 12 12 12 10 9 7 4 4 5 3 3 3 3
11 10 9 9 8 7 6 7 7 7 5 4 4 2 5 5 6 5 7 6 7 8 13 18 17 16 16 17 18 18 17 17 16 15 14 13 13 14 12 11 10 10 8
14 10 9 9 9 8 8 8 8 7 5 5 6 4 4 4 5 6 8 7 7 8 7 16 17 16 15 15 16 17 16 15 15 14 14 13 13 14 13 13 12 12 11
14 12 10 9 10 9 9 9 8 7 6 6 8 5 5 4 4 6 6 6 6 7 7 7 9 11 13 14 15 16 16 15 13 13 13 11 11 12 12 12 11 11 12
15 13 11 11 11 10 10 10 9 9 7 7 8 8 5 4 3 6 6 6 6 6 6 5 5 7 8 13 13 13 14 14 13 12 11 11 12 12 12 12 11 11 11
15 14 13 12 13 11 12 11 10 8 8 10 9 9 7 5 3 3 5 5 6 6 6 6 6 5 5 8 9 12 12 12 11 11 10 10 10 10 10 10 9 9 9
14 15 15 12 13 11 11 13 12 12 9 10 10 7 6 6 11 6 6 6 7 6 6 7 6 6 5 7 10 11 11 11 12 10 9 8 8 8 9 10 9 9 9
14 14 14 14 14 12 12 13 12 12 11 11 9 8 4 4 8 8 7 7 6 7 6 6 6 5 4 7 11 10 9 9 10 9 8 6 7 7 8 8 8 8 10
13 14 14 14 13 10 11 13 14 14 12 11 11 10 9 7 8 8 12 11 8 7 7 6 7 6 5 4 6 8 7 6 8 8 8 7 7 7 8 9 10 9 10
7 11 12 11 11 9 10 11 14 16 13 12 11 10 10 10 8 9 11 14 12 9 7 6 6 6 5 5 8 9 9 8 7 6 5 5 6 7 7 8 9 10 11
3 0 2 4 4 7 8 11 13 13 13 12 11 10 8 10 9 10 9 12 11 9 7 6 5 5 5 4 6 1 7 6 5 4 4 5 4 4 5 6 9 10 10
7 10 10 11 11 9 9 7 5 8 11 11 12 7 7 7 5 8 9 11 11 10 9 9 6 5 5 4 5 3 8 5 2 2 1 2 1 2 5 8 9 10 10
8 11 11 13 11 11 11 12 5 4 5 7 7 6 6 5 7 8 9 9 12 9 10 7 6 6 5 6 4 2 1 6 1 0 3 5 4 5 8 9 9 9 9
10 10 11 15 10 10 10 10 8 5 3 7 6 5 5 4 5 4 6 7 7 6 9 10 8 9 6 5 6 4 2 5 7 2 3 6 8 8 9 10 10 10 12
9 12 11 11 10 11 11 7 4 8 5 7 7 6 9 2 5 5 5 4 4 5 9 9 7 8 8 6 6 5 5 5 6 8 4 6 8 10 11 11 11 13 14
10 11 10 11 11 10 10 10 6 6 8 9 8 10 9 5 5 6 3 6 5 4 10 11 10 9 8 7 4 4 5 5 5 9 6 9 11 11 12 12 12 14 16
8 8 9 11 11 10 10 8 6 7 6 7 7 9 6 4 7 7 6 5 7 6 8 9 7 7 6 6 8 8 6 6 7 6 14 15 14 12 13 13 14 16 17
7 7 7 9 7 9 10 8 7 7 6 5 5 7 6 5 6 7 7 7 7 7 6 6 7 6 6 7 5 6 5 6 6 6 6 10 7 13 15 18 19 20 18
6 7 8 9 9 9 8 11 11 10 8 7 7 5 5 6 8 5 6 6 7 6 6 6 5 5 5 6 6 3 5 6 7 7 7 7 8 9 10 16 19 20 16
10 10 9 10 10 9 14 15 13 12 11 8 7 6 6 5 5 3 5 3 2 4 5 4 4 3 3 5 6 6 6 7 8 6 6 9 9 11 10 11 7 6 12
11 10 11 11 9 11 11 7 6 6 6 6 5 4 4 4 6 6 4 4 4 3 3 3 5 5 5 6 7 7 8 8 10 8 9 11 10 12 11 11 8 10 15
8 8 8 9 9 8 8 8 7 7 5 4 6 7 5 6 6 6 8 8 7 8 9 8 8 7 7 7 6 8 9 10 11 11 11 13 10 13 12 11 11 13 15
3 3 3 5 6 7 7 6 5 5 5 6 6 7 8 8 8 5 6 7 8 8 6 1 5 4 4 4 6 8 9 11 11 10 8 12 12 13 13 14 13 11 13
8 7 7 6 5 5 5 6 7 6 7 8 9 9 9 8 9 10 10 9 9 8 8 8 8 9 10 10 12 11 11 12 11 12 9 11 12 13 17 13 13 14 15
Wind_Direction
191 194 193 199 195 172 184 181 151 172 161 165 159 133 88 85 130 108 93 81 89 91 100 95 205 220 219 216 213 209 205 204 206 208 207 208 206 209 207 204 205 215 241
191 203 191 210 200 200 187 182 163 172 184 167 136 142 165 138 137 149 120 100 71 82 85 79 66 74 125 206 207 210 216 214 209 208 214 219 211 211 214 215 216 225 226
190 217 207 202 201 205 194 195 169 164 185 199 148 166 164 150 118 55 113 99 110 86 84 80 70 67 75 93 100 100 101 105 103 102 104 107 129 183 199 193 181 158 108
207 210 208 206 193 197 193 187 188 186 186 194 149 112 49 55 88 102 93 91 93 96 81 81 77 72 76 80 84 84 80 79 82 81 85 92 91 87 86 86 89 85 85
202 214 213 201 188 195 195 193 191 197 173 187 133 115 137 136 140 107 94 92 102 98 95 82 77 69 66 77 79 76 72 72 73 73 73 73 80 82 83 80 79 80 77
212 205 209 192 204 199 197 202 194 187 192 188 121 113 87 106 150 126 121 119 112 117 106 117 104 79 74 73 75 75 75 69 64 71 73 69 67 74 77 79 77 76 73
208 205 208 190 208 203 208 196 189 182 178 161 141 129 97 100 130 153 153 159 133 120 117 111 112 123 104 81 71 79 77 71 69 71 67 63 65 67 69 69 70 66 65
214 208 214 196 198 197 199 195 194 188 190 175 192 171 162 151 147 225 155 144 136 128 116 93 101 97 98 80 69 72 70 66 73 77 74 72 68 69 69 63 59 63 58
221 215 210 200 191 204 195 192 193 198 196 191 227 200 178 212 152 174 168 154 157 145 117 120 107 102 100 115 134 98 68 66 63 66 70 76 73 72 64 54 51 46 41
224 220 215 209 199 202 197 194 194 198 219 197 200 206 288 283 185 170 172 149 156 144 136 133 119 99 109 92 74 66 80 76 66 57 57 65 67 65 57 46 40 28 18
221 223 219 216 206 218 200 203 190 198 198 209 199 190 199 189 217 179 167 165 174 147 153 171 150 129 113 117 113 98 80 82 79 72 62 72 78 63 47 35 23 8 349
216 232 228 231 231 228 205 211 200 192 200 209 199 200 192 202 187 191 166 180 168 164 156 156 176 148 142 118 84 93 88 81 75 78 88 87 77 59 27 6 2 356 349
113 26 323 295 298 284 255 230 213 197 196 198 198 199 221 204 208 207 188 169 159 160 174 176 165 164 159 143 103 119 109 99 76 71 106 100 88 37 9 351 343 340 340
105 97 81 50 30 18 329 297 262 224 193 195 188 207 216 234 231 209 185 161 156 172 162 164 170 178 166 142 82 226 145 134 90 38 203 138 45 349 339 328 326 326 322
132 108 107 94 61 27 28 341 308 279 181 157 166 157 199 184 204 208 180 175 163 169 181 171 171 181 164 176 104 165 212 108 142 330 272 219 266 306 313 312 310 307 301
133 136 128 117 98 103 54 21 351 0 124 122 109 114 92 145 167 202 197 177 177 183 181 159 189 170 179 165 153 226 133 230 184 196 258 256 269 288 299 303 302 301 301
123 117 109 96 115 102 85 69 338 21 29 67 83 79 85 102 133 163 132 126 152 205 146 158 150 161 184 208 169 208 217 275 184 175 232 277 283 286 290 291 291 290 289
119 110 116 112 105 100 108 88 71 31 18 34 31 77 55 60 85 100 136 120 148 150 138 166 161 164 205 200 221 235 256 277 285 173 206 258 265 271 273 269 266 273 280
97 107 116 110 118 111 83 88 89 77 55 41 24 46 88 172 126 122 133 140 135 136 156 160 159 170 178 201 207 228 240 259 261 214 217 237 242 251 261 270 271 268 272
117 124 114 109 106 100 110 114 114 120 129 141 163 184 152 116 108 132 127 118 114 137 124 145 149 174 209 175 239 281 266 247 284 305 295 254 256 245 241 246 254 260 262
135 139 135 132 141 145 152 158 162 165 169 170 169 160 153 154 146 95 128 138 153 150 159 167 178 196 208 209 221 278 286 282 275 266 267 267 278 277 273 237 252 246 250
157 165 156 158 159 165 164 179 171 166 174 172 158 175 163 141 110 89 61 72 106 160 182 219 207 229 251 254 248 262 274 282 288 277 277 276 286 284 289 287 311 238 249
148 146 154 158 162 134 142 134 115 138 156 166 164 169 193 162 167 170 171 194 222 262 302 287 253 259 285 267 287 286 268 286 287 298 293 281 272 271 276 287 258 237 240
140 146 148 154 149 131 143 150 166 162 158 177 193 194 208 177 198 195 189 202 214 205 210 220 232 259 264 264 265 269 282 282 266 250 244 274 284 284 291 290 266 244 244
73 115 186 169 154 145 142 147 193 218 214 210 218 218 217 215 171 206 248 249 243 243 149 248 305 321 317 287 286 289 272 266 269 277 275 278 287 292 291 293 288 269 257
181 185 179 205 238 223 169 180 200 223 222 227 223 224 215 244 160 184 223 236 243 251 236 212 224 239 243 247 227 244 265 266 275 279 282 292 291 297 293 293 296 300 296